When you browse on this site, cookies collect data to enhance your experience and personalize the content and advertising you see.
Visit our Privacy Policy to learn more. By continuing to use the site, you agree to this use of cookies and data.
  • In Austria
  • List of Countries
  • For 7 days
  • Water Temperature
  • Weather Map
  • News
  • Weather Widgets
  • user-avatar
    Login

    Hourly Weather Rawson

    Today, 5 June, Friday

    Time Temperature Precipitation Wind Pressure Humidity
    00:00 +14°C° 0 mm 6 mps 756 mmHg 37%
    01:00 +13°C° 0 mm 5 mps 756 mmHg 37%
    02:00 +13°C° 0 mm 5 mps 755 mmHg 37%
    03:00 +12°C° 0 mm 4 mps 755 mmHg 38%
    04:00 +12°C° 0 mm 4 mps 755 mmHg 39%
    05:00 +11°C° 0 mm 4 mps 755 mmHg 40%
    06:00 +11°C° 0 mm 3 mps 755 mmHg 43%
    07:00 +11°C° 0 mm 3 mps 755 mmHg 45%
    08:00 +10°C° 0 mm 2 mps 755 mmHg 48%
    09:00 +12°C° 0 mm 3 mps 756 mmHg 43%
    10:00 +14°C° 0 mm 3 mps 756 mmHg 39%
    11:00 +17°C° 0 mm 4 mps 756 mmHg 35%
    12:00 +18°C° 0 mm 4 mps 756 mmHg 31%
    13:00 +20°C° 0 mm 4 mps 755 mmHg 27%
    14:00 +21°C° 0 mm 4 mps 755 mmHg 24%
    15:00 +19°C° 0 mm 4 mps 755 mmHg 24%
    16:00 +18°C° 0 mm 4 mps 755 mmHg 24%
    17:00 +17°C° 0 mm 4 mps 755 mmHg 24%
    18:00 +15°C° 0 mm 4 mps 755 mmHg 25%
    19:00 +15°C° 0 mm 5 mps 755 mmHg 27%
    20:00 +14°C° 0 mm 5 mps 755 mmHg 28%
    21:00 +13°C° 0 mm 5 mps 755 mmHg 29%
    22:00 +13°C° 0 mm 5 mps 755 mmHg 30%
    23:00 +12°C° 0 mm 5 mps 755 mmHg 30%

    Tomorrow, 6 June, Saturday

    Time Temperature Precipitation Wind Pressure Humidity
    00:00 +12°C° 0 mm 5 mps 755 mmHg 30%
    01:00 +10°C° 0 mm 5 mps 755 mmHg 30%
    02:00 +10°C° 0 mm 5 mps 755 mmHg 30%
    03:00 +10°C° 0 mm 6 mps 755 mmHg 29%
    04:00 +10°C° 0 mm 7 mps 754 mmHg 28%
    05:00 +11°C° 0 mm 8 mps 754 mmHg 26%
    06:00 +11°C° 0 mm 7 mps 753 mmHg 26%
    07:00 +10°C° 0 mm 7 mps 753 mmHg 27%
    08:00 +10°C° 0 mm 7 mps 753 mmHg 27%
    09:00 +12°C° 0 mm 8 mps 752 mmHg 25%
    10:00 +15°C° 0 mm 8 mps 752 mmHg 23%
    11:00 +16°C° 0 mm 9 mps 752 mmHg 21%
    12:00 +17°C° 0 mm 10 mps 751 mmHg 22%
    13:00 +19°C° 0 mm 12 mps 751 mmHg 23%
    14:00 +20°C° 0 mm 13 mps 750 mmHg 24%
    15:00 +19°C° 0 mm 13 mps 750 mmHg 27%
    16:00 +18°C° 0 mm 13 mps 750 mmHg 30%
    17:00 +17°C° 0 mm 13 mps 750 mmHg 33%
    18:00 +15°C° 0 mm 12 mps 751 mmHg 34%
    19:00 +16°C° 0 mm 11 mps 752 mmHg 34%
    20:00 +15°C° 0 mm 9 mps 753 mmHg 35%
    21:00 +13°C° 0 mm 9 mps 754 mmHg 39%
    22:00 +12°C° 0 mm 9 mps 755 mmHg 44%
    23:00 +11°C° 0 mm 9 mps 756 mmHg 48%

    Day after tomorrow, 7 June, Sunday

    Time Temperature Precipitation Wind Pressure Humidity
    00:00 +10°C° 0 mm 8 mps 756 mmHg 47%
    01:00 +9°C° 0 mm 7 mps 757 mmHg 46%
    02:00 +8°C° 0 mm 6 mps 758 mmHg 45%
    03:00 +8°C° 0 mm 5 mps 758 mmHg 45%
    04:00 +7°C° 0 mm 5 mps 758 mmHg 45%
    05:00 +7°C° 0 mm 5 mps 758 mmHg 45%
    06:00 +7°C° 0 mm 5 mps 758 mmHg 49%
    07:00 +6°C° 0 mm 4 mps 758 mmHg 52%
    08:00 +6°C° 0 mm 4 mps 758 mmHg 55%
    09:00 +8°C° 0 mm 5 mps 758 mmHg 47%
    10:00 +9°C° 0 mm 5 mps 758 mmHg 40%
    11:00 +12°C° 0 mm 5 mps 758 mmHg 32%
    12:00 +12°C° 0 mm 7 mps 757 mmHg 29%
    13:00 +13°C° 0 mm 8 mps 757 mmHg 27%
    14:00 +14°C° 0 mm 10 mps 756 mmHg 25%
    15:00 +13°C° 0 mm 8 mps 756 mmHg 26%
    16:00 +12°C° 0 mm 7 mps 755 mmHg 27%
    17:00 +11°C° 0 mm 6 mps 755 mmHg 29%
    18:00 +11°C° 0 mm 6 mps 755 mmHg 33%
    19:00 +11°C° 0 mm 6 mps 755 mmHg 38%
    20:00 +10°C° 0 mm 7 mps 754 mmHg 42%
    21:00 +10°C° 0 mm 7 mps 754 mmHg 45%
    22:00 +10°C° 0 mm 7 mps 754 mmHg 48%
    23:00 +10°C° 0 mm 8 mps 754 mmHg 50%

    8 June, Monday

    Time Temperature Precipitation Wind Pressure Humidity
    00:00 +10°C° 0 mm 8 mps 754 mmHg 49%
    01:00 +10°C° 0 mm 9 mps 753 mmHg 48%
    02:00 +10°C° 0 mm 9 mps 753 mmHg 46%
    03:00 +10°C° 0 mm 9 mps 753 mmHg 45%
    04:00 +8°C° 0 mm 9 mps 753 mmHg 44%
    05:00 +9°C° 0 mm 8 mps 752 mmHg 42%
    06:00 +9°C° 0 mm 8 mps 752 mmHg 42%
    07:00 +8°C° 0 mm 7 mps 752 mmHg 42%
    08:00 +8°C° 0 mm 6 mps 752 mmHg 42%
    09:00 +10°C° 0 mm 8 mps 751 mmHg 38%
    10:00 +11°C° 0 mm 9 mps 751 mmHg 35%
    11:00 +13°C° 0 mm 10 mps 751 mmHg 31%
    12:00 +13°C° 0 mm 10 mps 751 mmHg 33%
    13:00 +12°C° 0 mm 11 mps 751 mmHg 36%
    14:00 +11°C° 0 mm 11 mps 751 mmHg 38%
    15:00 +11°C° 0 mm 10 mps 752 mmHg 37%
    16:00 +9°C° 0 mm 10 mps 752 mmHg 36%
    17:00 +10°C° 0 mm 9 mps 753 mmHg 35%
    18:00 +8°C° 0 mm 9 mps 753 mmHg 36%
    19:00 +8°C° 0 mm 9 mps 754 mmHg 37%
    20:00 +7°C° 0 mm 8 mps 755 mmHg 37%
    21:00 +6°C° 0 mm 8 mps 755 mmHg 39%
    22:00 +6°C° 0 mm 8 mps 755 mmHg 41%
    23:00 +5°C° 0 mm 7 mps 755 mmHg 43%

    9 June, Tuesday

    Time Temperature Precipitation Wind Pressure Humidity
    00:00 +5°C° 0 mm 7 mps 754 mmHg 43%
    01:00 +5°C° 0 mm 8 mps 754 mmHg 44%
    02:00 +4°C° 0 mm 8 mps 753 mmHg 44%
    03:00 +5°C° 0 mm 8 mps 752 mmHg 42%
    04:00 +5°C° 0 mm 9 mps 752 mmHg 40%
    05:00 +5°C° 0 mm 9 mps 751 mmHg 38%
    06:00 +6°C° 0 mm 9 mps 750 mmHg 39%
    07:00 +6°C° 0 mm 10 mps 749 mmHg 41%
    08:00 +6°C° 0 mm 10 mps 748 mmHg 43%
    09:00 +8°C° 0 mm 11 mps 748 mmHg 39%
    10:00 +11°C° 0 mm 11 mps 747 mmHg 36%
    11:00 +13°C° 0 mm 12 mps 747 mmHg 33%
    12:00 +13°C° 0 mm 13 mps 746 mmHg 36%
    13:00 +12°C° 0 mm 13 mps 745 mmHg 39%
    14:00 +12°C° 0 mm 14 mps 745 mmHg 42%
    15:00 +10°C° 0 mm 13 mps 745 mmHg 40%
    16:00 +10°C° 0 mm 12 mps 745 mmHg 38%
    17:00 +9°C° 0 mm 11 mps 746 mmHg 36%
    18:00 +8°C° 0 mm 12 mps 746 mmHg 36%
    19:00 +8°C° 0 mm 13 mps 746 mmHg 36%
    20:00 +6°C° 0 mm 14 mps 747 mmHg 36%
    21:00 +6°C° 0 mm 14 mps 747 mmHg 39%
    22:00 +5°C° 0 mm 14 mps 748 mmHg 43%
    23:00 +5°C° 0 mm 14 mps 748 mmHg 46%

    10 June, Wednesday

    Time Temperature Precipitation Wind Pressure Humidity
    00:00 +5°C° 0 mm 13 mps 748 mmHg 47%
    01:00 +4°C° 0 mm 12 mps 749 mmHg 47%
    02:00 +4°C° 0 mm 12 mps 749 mmHg 48%
    03:00 +4°C° 0 mm 11 mps 749 mmHg 48%
    04:00 +4°C° 0 mm 11 mps 749 mmHg 49%
    05:00 +3°C° 0 mm 11 mps 749 mmHg 50%
    06:00 +3°C° 0 mm 10 mps 749 mmHg 51%
    07:00 +3°C° 0 mm 10 mps 750 mmHg 52%
    08:00 +3°C° 0 mm 9 mps 750 mmHg 53%
    09:00 +5°C° 0 mm 10 mps 750 mmHg 48%
    10:00 +7°C° 0 mm 10 mps 750 mmHg 43%
    11:00 +8°C° 0 mm 11 mps 750 mmHg 38%
    12:00 +9°C° 0 mm 10 mps 750 mmHg 36%
    13:00 +11°C° 0 mm 10 mps 749 mmHg 35%
    14:00 +11°C° 0 mm 9 mps 749 mmHg 33%
    15:00 +11°C° 0 mm 8 mps 749 mmHg 35%
    16:00 +10°C° 0 mm 6 mps 749 mmHg 37%
    17:00 +9°C° 0 mm 5 mps 748 mmHg 38%
    18:00 +9°C° 0 mm 5 mps 748 mmHg 39%
    19:00 +8°C° 0 mm 6 mps 748 mmHg 40%
    20:00 +8°C° 0 mm 6 mps 747 mmHg 41%
    21:00 +8°C° 0 mm 7 mps 747 mmHg 44%
    22:00 +9°C° 0 mm 8 mps 746 mmHg 46%
    23:00 +8°C° 0 mm 9 mps 745 mmHg 49%
    Show more